Location: Gro�wechsungen
(51.4926°N, 10.6901°E)
Time: 00:27:49
(UTC+00:00)

Meteor 2-9 Rocket - Pass Details

Date: 18 September 2020
Orbit: 791 x 896 km, 81.3° (Epoch: 23 October)

Event Time Altitude Azimuth Distance (km) Brightness Sun altitude
Rises 17:51:36 0° 176° (S) 3,499 7.3 -5.1°
Reaches altitude 10° 17:54:05 10° 173° (S) 2,561 6.5 -5.5°
Maximum altitude 17:59:47 57° 96° (E) 1,042 4.4 -6.4°
Drops below altitude 10° 18:05:27 10° 19° (NNE) 2,541 6.6 -7.2°
Sets 18:07:55 0° 16° (NNE) 3,469 7.4 -7.6°
